WXM80 ListenWXM80 Stop

You find our weather info also at:

UK Metoffice

WeatherCloud

Weather Underground

Northeastern Weather Network

AWEKAS

Citizen Weather Observer Program (CWOP)

HAMweather, WeatherForYou, PWS Weather


Weather Underground History page Text

Daily Summary for April 26, 2017 Units:  Both    English   Metric
« Previous Day
Next Day »
Daily Weekly Monthly Yearly Custom
  High: Low: Average:
Temperature: 59.5 °F /  15.3 °C 49.4 °F /  9.7 °C 53.4 °F /  11.9 °C
Dew Point: 58.4 °F /  14.7 °C 48.9 °F /  9.4 °C 52.7 °F /  11.5 °C
Humidity: 99 % 91 % 98 %
Wind Speed: 12.5 mph /  20.1 km/h - 3.4 mph /  5.5 km/h
Wind Gust: 18.4 mph /  29.6 km/h - -
Wind:- - East
Pressure: 29.84 in /  1010.4 hPa 29.72 in /  1006.3 hPa -
Precipitation: 0.12 in /  3.05 mm    
Historical Graphs
 
 
Tabular Data for April 26, 2017
Time Temperature Dew Point Pressure Wind Wind Speed Wind Gust Humidity Rainfall Rate (Hourly)
00:01 49.4 °F /  9.7 °C 48.9 °F /  9.4 °C 29.84 in /  1010.4 hPa East 9.0 mph /  14.5 km/h 9.2 mph /  14.8 km/h 98 % 0.02 in /  0.51 mm
00:07 49.6 °F /  9.8 °C 49.1 °F /  9.5 °C 29.84 in /  1010.4 hPa ENE 10.4 mph /  16.7 km/h 11.5 mph /  18.5 km/h 98 % 0.02 in /  0.51 mm
00:12 49.9 °F /  9.9 °C 49.4 °F /  9.7 °C 29.83 in /  1010 hPa ENE 12.5 mph /  20.1 km/h 18.4 mph /  29.6 km/h 98 % 0.03 in /  0.76 mm
00:17 50.1 °F /  10.1 °C 49.6 °F /  9.8 °C 29.83 in /  1010 hPa ENE 9.3 mph /  15 km/h 13.8 mph /  22.2 km/h 98 % 0.02 in /  0.51 mm
00:22 50.1 °F /  10.1 °C 49.8 °F /  9.9 °C 29.83 in /  1010 hPa ENE 8.6 mph /  13.8 km/h 11.5 mph /  18.5 km/h 99 % 0.02 in /  0.51 mm
00:27 50.2 °F /  10.1 °C 49.9 °F /  9.9 °C 29.83 in /  1010 hPa East 7.2 mph /  11.6 km/h 9.2 mph /  14.8 km/h 99 % 0.02 in /  0.51 mm
00:32 50.3 °F /  10.2 °C 50.0 °F /  10 °C 29.83 in /  1010 hPa ENE 7.7 mph /  12.4 km/h 10.4 mph /  16.7 km/h 99 % 0.02 in /  0.51 mm
00:37 50.3 °F /  10.2 °C 50.0 °F /  10 °C 29.82 in /  1009.7 hPa East 8.2 mph /  13.2 km/h 12.7 mph /  20.4 km/h 99 % 0.02 in /  0.51 mm
00:42 50.4 °F /  10.2 °C 50.1 °F /  10.1 °C 29.82 in /  1009.7 hPa ENE 10.4 mph /  16.7 km/h 16.1 mph /  25.9 km/h 99 % 0.02 in /  0.51 mm
00:47 50.4 °F /  10.2 °C 49.9 °F /  9.9 °C 29.81 in /  1009.4 hPa ENE 12.0 mph /  19.3 km/h 18.0 mph /  29 km/h 98 % 0.02 in /  0.51 mm
00:52 50.4 °F /  10.2 °C 49.9 °F /  9.9 °C 29.81 in /  1009.4 hPa ENE 11.1 mph /  17.9 km/h 14.0 mph /  22.5 km/h 98 % 0.01 in /  0.25 mm
00:57 50.4 °F /  10.2 °C 49.9 °F /  9.9 °C 29.81 in /  1009.4 hPa ENE 6.6 mph /  10.6 km/h 12.7 mph /  20.4 km/h 98 % 0.01 in /  0.25 mm
01:03 50.4 °F /  10.2 °C 49.9 °F /  9.9 °C 29.80 in /  1009 hPa East 6.6 mph /  10.6 km/h 12.7 mph /  20.4 km/h 98 % 0.01 in /  0.25 mm
01:08 50.5 °F /  10.3 °C 50.0 °F /  10 °C 29.79 in /  1008.7 hPa East 10.1 mph /  16.3 km/h 15.0 mph /  24.1 km/h 98 % 0.01 in /  0.25 mm
01:13 50.6 °F /  10.3 °C 50.1 °F /  10.1 °C 29.79 in /  1008.7 hPa ENE 9.0 mph /  14.5 km/h 11.5 mph /  18.5 km/h 98 % 0.00 in /  0 mm
01:18 50.5 °F /  10.3 °C 50.0 °F /  10 °C 29.79 in /  1008.7 hPa East 9.0 mph /  14.5 km/h 12.7 mph /  20.4 km/h 98 % 0.00 in /  0 mm
01:23 50.4 °F /  10.2 °C 49.9 °F /  9.9 °C 29.79 in /  1008.7 hPa ENE 8.6 mph /  13.8 km/h 12.7 mph /  20.4 km/h 98 % 0.00 in /  0 mm
01:28 50.3 °F /  10.2 °C 50.0 °F /  10 °C 29.78 in /  1008.4 hPa East 7.4 mph /  11.9 km/h 9.2 mph /  14.8 km/h 99 % 0.00 in /  0 mm
01:33 50.3 °F /  10.2 °C 50.0 °F /  10 °C 29.78 in /  1008.4 hPa East 6.8 mph /  10.9 km/h 8.1 mph /  13 km/h 99 % 0.00 in /  0 mm
01:38 50.4 °F /  10.2 °C 50.1 °F /  10.1 °C 29.78 in /  1008.4 hPa ENE 7.9 mph /  12.7 km/h 10.0 mph /  16.1 km/h 99 % 0.00 in /  0 mm
01:43 50.5 °F /  10.3 °C 50.0 °F /  10 °C 29.77 in /  1008 hPa East 9.0 mph /  14.5 km/h 10.4 mph /  16.7 km/h 98 % 0.00 in /  0 mm
01:48 50.6 °F /  10.3 °C 50.1 °F /  10.1 °C 29.77 in /  1008 hPa ENE 8.7 mph /  14 km/h 10.4 mph /  16.7 km/h 98 % 0.00 in /  0 mm
01:54 50.8 °F /  10.4 °C 50.5 °F /  10.3 °C 29.77 in /  1008 hPa East 6.8 mph /  10.9 km/h 9.2 mph /  14.8 km/h 99 % 0.00 in /  0 mm
01:59 50.6 °F /  10.3 °C 50.1 °F /  10.1 °C 29.77 in /  1008 hPa East 7.4 mph /  11.9 km/h 9.2 mph /  14.8 km/h 98 % 0.00 in /  0 mm
02:04 50.5 °F /  10.3 °C 50.0 °F /  10 °C 29.78 in /  1008.4 hPa East 4.8 mph /  7.7 km/h 8.1 mph /  13 km/h 98 % 0.00 in /  0 mm
02:14 50.4 °F /  10.2 °C 49.9 °F /  9.9 °C 29.78 in /  1008.4 hPa East 8.2 mph /  13.2 km/h 10.4 mph /  16.7 km/h 98 % 0.00 in /  0 mm
02:19 50.7 °F /  10.4 °C 50.2 °F /  10.1 °C 29.78 in /  1008.4 hPa East 8.9 mph /  14.3 km/h 11.5 mph /  18.5 km/h 98 % 0.00 in /  0 mm
02:24 50.7 °F /  10.4 °C 50.2 °F /  10.1 °C 29.77 in /  1008 hPa East 7.4 mph /  11.9 km/h 10.4 mph /  16.7 km/h 98 % 0.00 in /  0 mm
02:29 50.6 °F /  10.3 °C 50.1 °F /  10.1 °C 29.77 in /  1008 hPa East 6.1 mph /  9.8 km/h 9.2 mph /  14.8 km/h 98 % 0.00 in /  0 mm
02:34 50.5 °F /  10.3 °C 50.0 °F /  10 °C 29.77 in /  1008 hPa East 5.2 mph /  8.4 km/h 6.9 mph /  11.1 km/h 98 % 0.00 in /  0 mm
02:39 50.4 °F /  10.2 °C 49.9 °F /  9.9 °C 29.77 in /  1008 hPa East 3.7 mph /  6 km/h 6.9 mph /  11.1 km/h 98 % 0.00 in /  0 mm
02:44 50.3 °F /  10.2 °C 50.0 °F /  10 °C 29.77 in /  1008 hPa East 4.9 mph /  7.9 km/h 6.0 mph /  9.7 km/h 99 % 0.00 in /  0 mm
02:50 50.1 °F /  10.1 °C 49.8 °F /  9.9 °C 29.76 in /  1007.7 hPa ESE 1.3 mph /  2.1 km/h 4.6 mph /  7.4 km/h 99 % 0.00 in /  0 mm
02:55 50.1 °F /  10.1 °C 49.6 °F /  9.8 °C 29.76 in /  1007.7 hPa East 3.4 mph /  5.5 km/h 7.0 mph /  11.3 km/h 98 % 0.00 in /  0 mm
03:00 50.0 °F /  10 °C 49.5 °F /  9.7 °C 29.76 in /  1007.7 hPa East 3.4 mph /  5.5 km/h 4.6 mph /  7.4 km/h 98 % 0.00 in /  0 mm
03:05 50.1 °F /  10.1 °C 49.6 °F /  9.8 °C 29.76 in /  1007.7 hPa East 2.9 mph /  4.7 km/h 5.8 mph /  9.3 km/h 98 % 0.00 in /  0 mm
03:10 50.2 °F /  10.1 °C 49.9 °F /  9.9 °C 29.76 in /  1007.7 hPa ENE 3.3 mph /  5.3 km/h 4.6 mph /  7.4 km/h 99 % 0.00 in /  0 mm
03:20 50.5 °F /  10.3 °C 50.0 °F /  10 °C 29.76 in /  1007.7 hPa East 5.0 mph /  8 km/h 6.0 mph /  9.7 km/h 98 % 0.00 in /  0 mm
03:25 50.6 °F /  10.3 °C 50.3 °F /  10.2 °C 29.75 in /  1007.3 hPa East 5.4 mph /  8.7 km/h 6.0 mph /  9.7 km/h 99 % 0.00 in /  0 mm
03:30 50.6 °F /  10.3 °C 50.3 °F /  10.2 °C 29.75 in /  1007.3 hPa East 5.3 mph /  8.5 km/h 6.9 mph /  11.1 km/h 99 % 0.00 in /  0 mm
03:35 50.5 °F /  10.3 °C 50.2 °F /  10.1 °C 29.74 in /  1007 hPa East 4.8 mph /  7.7 km/h 5.8 mph /  9.3 km/h 99 % 0.01 in /  0.25 mm
03:40 50.4 °F /  10.2 °C 50.1 °F /  10.1 °C 29.74 in /  1007 hPa East 4.5 mph /  7.2 km/h 5.8 mph /  9.3 km/h 99 % 0.02 in /  0.51 mm
03:45 50.3 °F /  10.2 °C 50.0 °F /  10 °C 29.74 in /  1007 hPa East 5.1 mph /  8.2 km/h 5.8 mph /  9.3 km/h 99 % 0.02 in /  0.51 mm
03:50 50.3 °F /  10.2 °C 50.0 °F /  10 °C 29.73 in /  1006.7 hPa ENE 3.3 mph /  5.3 km/h 4.6 mph /  7.4 km/h 99 % 0.02 in /  0.51 mm
03:56 50.3 °F /  10.2 °C 50.0 °F /  10 °C 29.73 in /  1006.7 hPa East 3.0 mph /  4.8 km/h 7.0 mph /  11.3 km/h 99 % 0.00 in /  0 mm
04:00 50.3 °F /  10.2 °C 50.0 °F /  10 °C 29.73 in /  1006.7 hPa ENE 3.2 mph /  5.1 km/h 6.9 mph /  11.1 km/h 99 % 0.02 in /  0.51 mm
04:01 50.3 °F /  10.2 °C 50.0 °F /  10 °C 29.73 in /  1006.7 hPa ENE 3.0 mph /  4.8 km/h 6.9 mph /  11.1 km/h 99 % 0.02 in /  0.51 mm
04:06 50.4 °F /  10.2 °C 50.1 °F /  10.1 °C 29.73 in /  1006.7 hPa ENE 5.3 mph /  8.5 km/h 6.9 mph /  11.1 km/h 99 % 0.03 in /  0.76 mm
04:11 50.5 °F /  10.3 °C 50.2 °F /  10.1 °C 29.72 in /  1006.3 hPa NE 3.0 mph /  4.8 km/h 8.1 mph /  13 km/h 99 % 0.03 in /  0.76 mm
04:16 50.5 °F /  10.3 °C 50.2 °F /  10.1 °C 29.73 in /  1006.7 hPa ENE 4.7 mph /  7.6 km/h 7.0 mph /  11.3 km/h 99 % 0.03 in /  0.76 mm
04:21 50.5 °F /  10.3 °C 50.2 °F /  10.1 °C 29.73 in /  1006.7 hPa NE 4.5 mph /  7.2 km/h 5.0 mph /  8 km/h 99 % 0.03 in /  0.76 mm
04:26 50.6 °F /  10.3 °C 50.3 °F /  10.2 °C 29.73 in /  1006.7 hPa ENE 4.8 mph /  7.7 km/h 8.1 mph /  13 km/h 99 % 0.03 in /  0.76 mm
04:31 50.6 °F /  10.3 °C 50.3 °F /  10.2 °C 29.73 in /  1006.7 hPa ENE 6.9 mph /  11.1 km/h 9.2 mph /  14.8 km/h 99 % 0.03 in /  0.76 mm
04:36 50.6 °F /  10.3 °C 50.3 °F /  10.2 °C 29.73 in /  1006.7 hPa ENE 7.0 mph /  11.3 km/h 11.5 mph /  18.5 km/h 99 % 0.02 in /  0.51 mm
04:41 50.6 °F /  10.3 °C 50.3 °F /  10.2 °C 29.73 in /  1006.7 hPa ENE 7.2 mph /  11.6 km/h 10.4 mph /  16.7 km/h 99 % 0.01 in /  0.25 mm
04:46 50.6 °F /  10.3 °C 50.3 °F /  10.2 °C 29.73 in /  1006.7 hPa ENE 9.4 mph /  15.1 km/h 10.4 mph /  16.7 km/h 99 % 0.01 in /  0.25 mm
04:52 50.6 °F /  10.3 °C 50.3 °F /  10.2 °C 29.73 in /  1006.7 hPa ENE 8.1 mph /  13 km/h 11.5 mph /  18.5 km/h 99 % 0.01 in /  0.25 mm
04:57 50.5 °F /  10.3 °C 50.2 °F /  10.1 °C 29.73 in /  1006.7 hPa East 7.2 mph /  11.6 km/h 10.4 mph /  16.7 km/h 99 % 0.01 in /  0.25 mm
05:02 50.5 °F /  10.3 °C 50.2 °F /  10.1 °C 29.74 in /  1007 hPa ENE 5.4 mph /  8.7 km/h 9.2 mph /  14.8 km/h 99 % 0.01 in /  0.25 mm
05:07 50.5 °F /  10.3 °C 50.2 °F /  10.1 °C 29.74 in /  1007 hPa East 4.2 mph /  6.8 km/h 5.8 mph /  9.3 km/h 99 % 0.00 in /  0 mm
05:08 50.5 °F /  10.3 °C 50.2 °F /  10.1 °C 29.74 in /  1007 hPa East 3.7 mph /  6 km/h 6.0 mph /  9.7 km/h 99 % 0.00 in /  0 mm
05:13 50.6 °F /  10.3 °C 50.3 °F /  10.2 °C 29.74 in /  1007 hPa East 4.2 mph /  6.8 km/h 5.8 mph /  9.3 km/h 99 % 0.00 in /  0 mm
05:18 50.6 °F /  10.3 °C 50.3 °F /  10.2 °C 29.74 in /  1007 hPa East 4.4 mph /  7.1 km/h 6.0 mph /  9.7 km/h 99 % 0.00 in /  0 mm
05:23 50.6 °F /  10.3 °C 50.3 °F /  10.2 °C 29.74 in /  1007 hPa ENE 3.5 mph /  5.6 km/h 4.6 mph /  7.4 km/h 99 % 0.00 in /  0 mm
05:28 50.5 °F /  10.3 °C 50.2 °F /  10.1 °C 29.74 in /  1007 hPa East 5.0 mph /  8 km/h 6.9 mph /  11.1 km/h 99 % 0.00 in /  0 mm
05:33 50.5 °F /  10.3 °C 50.2 °F /  10.1 °C 29.74 in /  1007 hPa ENE 2.8 mph /  4.5 km/h 4.6 mph /  7.4 km/h 99 % 0.00 in /  0 mm
05:38 50.5 °F /  10.3 °C 50.2 °F /  10.1 °C 29.74 in /  1007 hPa East 2.9 mph /  4.7 km/h 3.5 mph /  5.6 km/h 99 % 0.00 in /  0 mm
05:43 50.5 °F /  10.3 °C 50.2 °F /  10.1 °C 29.74 in /  1007 hPa East 4.7 mph /  7.6 km/h 10.4 mph /  16.7 km/h 99 % 0.01 in /  0.25 mm
05:48 50.5 °F /  10.3 °C 50.2 °F /  10.1 °C 29.74 in /  1007 hPa ENE 5.4 mph /  8.7 km/h 9.2 mph /  14.8 km/h 99 % 0.01 in /  0.25 mm
05:53 50.4 °F /  10.2 °C 50.1 °F /  10.1 °C 29.74 in /  1007 hPa ENE 6.5 mph /  10.5 km/h 9.2 mph /  14.8 km/h 99 % 0.01 in /  0.25 mm
05:59 50.4 °F /  10.2 °C 50.1 °F /  10.1 °C 29.74 in /  1007 hPa ENE 5.8 mph /  9.3 km/h 9.2 mph /  14.8 km/h 99 % 0.01 in /  0.25 mm
06:04 50.3 °F /  10.2 °C 50.0 °F /  10 °C 29.73 in /  1006.7 hPa East 4.9 mph /  7.9 km/h 8.1 mph /  13 km/h 99 % 0.01 in /  0.25 mm
06:09 50.3 °F /  10.2 °C 50.0 °F /  10 °C 29.73 in /  1006.7 hPa NE 5.1 mph /  8.2 km/h 8.1 mph /  13 km/h 99 % 0.02 in /  0.51 mm
06:14 50.3 °F /  10.2 °C 50.0 °F /  10 °C 29.73 in /  1006.7 hPa ENE 3.4 mph /  5.5 km/h 6.9 mph /  11.1 km/h 99 % 0.02 in /  0.51 mm
06:19 50.4 °F /  10.2 °C 50.1 °F /  10.1 °C 29.73 in /  1006.7 hPa NNE 3.3 mph /  5.3 km/h 4.6 mph /  7.4 km/h 99 % 0.03 in /  0.76 mm
06:24 50.4 °F /  10.2 °C 50.1 °F /  10.1 °C 29.73 in /  1006.7 hPa NE 4.3 mph /  6.9 km/h 8.1 mph /  13 km/h 99 % 0.03 in /  0.76 mm
06:29 50.4 °F /  10.2 °C 50.1 °F /  10.1 °C 29.73 in /  1006.7 hPa ENE 3.1 mph /  5 km/h 7.0 mph /  11.3 km/h 99 % 0.04 in /  1.02 mm
06:34 50.4 °F /  10.2 °C 50.1 °F /  10.1 °C 29.73 in /  1006.7 hPa NNE 5.4 mph /  8.7 km/h 8.1 mph /  13 km/h 99 % 0.04 in /  1.02 mm
06:39 50.4 °F /  10.2 °C 50.1 °F /  10.1 °C 29.72 in /  1006.3 hPa NE 3.0 mph /  4.8 km/h 8.1 mph /  13 km/h 99 % 0.04 in /  1.02 mm
06:44 50.4 °F /  10.2 °C 50.1 °F /  10.1 °C 29.73 in /  1006.7 hPa ENE 3.9 mph /  6.3 km/h 5.0 mph /  8 km/h 99 % 0.03 in /  0.76 mm
06:49 50.4 °F /  10.2 °C 50.1 °F /  10.1 °C 29.73 in /  1006.7 hPa NNE 4.1 mph /  6.6 km/h 6.0 mph /  9.7 km/h 99 % 0.03 in /  0.76 mm
06:55 50.4 °F /  10.2 °C 50.1 °F /  10.1 °C 29.73 in /  1006.7 hPa NE 4.2 mph /  6.8 km/h 6.9 mph /  11.1 km/h 99 % 0.03 in /  0.76 mm
07:05 50.4 °F /  10.2 °C 50.1 °F /  10.1 °C 29.73 in /  1006.7 hPa NNE 2.7 mph /  4.3 km/h 5.8 mph /  9.3 km/h 99 % 0.03 in /  0.76 mm
07:10 50.4 °F /  10.2 °C 50.1 °F /  10.1 °C 29.73 in /  1006.7 hPa North 3.3 mph /  5.3 km/h 5.0 mph /  8 km/h 99 % 0.02 in /  0.51 mm
07:15 50.4 °F /  10.2 °C 50.1 °F /  10.1 °C 29.73 in /  1006.7 hPa ENE 3.2 mph /  5.1 km/h 8.1 mph /  13 km/h 99 % 0.02 in /  0.51 mm
07:20 50.4 °F /  10.2 °C 50.1 °F /  10.1 °C 29.73 in /  1006.7 hPa NE 3.8 mph /  6.1 km/h 8.1 mph /  13 km/h 99 % 0.01 in /  0.25 mm
07:25 50.4 °F /  10.2 °C 50.1 °F /  10.1 °C 29.73 in /  1006.7 hPa ENE 2.2 mph /  3.5 km/h 4.6 mph /  7.4 km/h 99 % 0.00 in /  0 mm
07:30 50.4 °F /  10.2 °C 50.1 °F /  10.1 °C 29.73 in /  1006.7 hPa ENE 4.9 mph /  7.9 km/h 8.0 mph /  12.9 km/h 99 % 0.00 in /  0 mm
07:35 50.4 °F /  10.2 °C 50.1 °F /  10.1 °C 29.73 in /  1006.7 hPa ENE 3.5 mph /  5.6 km/h 6.9 mph /  11.1 km/h 99 % 0.00 in /  0 mm
07:40 50.4 °F /  10.2 °C 50.1 °F /  10.1 °C 29.73 in /  1006.7 hPa ENE 3.7 mph /  6 km/h 4.6 mph /  7.4 km/h 99 % 0.00 in /  0 mm
07:45 50.4 °F /  10.2 °C 50.1 °F /  10.1 °C 29.74 in /  1007 hPa ENE 4.6 mph /  7.4 km/h 7.0 mph /  11.3 km/h 99 % 0.00 in /  0 mm
07:50 50.4 °F /  10.2 °C 50.1 °F /  10.1 °C 29.74 in /  1007 hPa ENE 2.6 mph /  4.2 km/h 6.9 mph /  11.1 km/h 99 % 0.00 in /  0 mm
07:55 50.4 °F /  10.2 °C 50.1 °F /  10.1 °C 29.74 in /  1007 hPa ENE 1.9 mph /  3.1 km/h 3.5 mph /  5.6 km/h 99 % 0.01 in /  0.25 mm
08:00 50.3 °F /  10.2 °C 50.0 °F /  10 °C 29.74 in /  1007 hPa ENE 4.9 mph /  7.9 km/h 6.9 mph /  11.1 km/h 99 % 0.01 in /  0.25 mm
08:05 50.3 °F /  10.2 °C 50.0 °F /  10 °C 29.74 in /  1007 hPa ENE 3.4 mph /  5.5 km/h 8.1 mph /  13 km/h 99 % 0.02 in /  0.51 mm
08:10 50.3 °F /  10.2 °C 50.0 °F /  10 °C 29.74 in /  1007 hPa ENE 3.8 mph /  6.1 km/h 4.6 mph /  7.4 km/h 99 % 0.03 in /  0.76 mm
08:16 50.3 °F /  10.2 °C 50.0 °F /  10 °C 29.74 in /  1007 hPa ENE 3.0 mph /  4.8 km/h 7.0 mph /  11.3 km/h 99 % 0.00 in /  0 mm
08:21 50.4 °F /  10.2 °C 50.1 °F /  10.1 °C 29.74 in /  1007 hPa ENE 3.0 mph /  4.8 km/h 7.0 mph /  11.3 km/h 99 % 0.00 in /  0 mm
08:26 50.4 °F /  10.2 °C 50.1 °F /  10.1 °C 29.74 in /  1007 hPa ENE 5.0 mph /  8 km/h 8.0 mph /  12.9 km/h 99 % 0.00 in /  0 mm
08:31 50.4 °F /  10.2 °C 50.1 °F /  10.1 °C 29.74 in /  1007 hPa ENE 5.0 mph /  8 km/h 7.0 mph /  11.3 km/h 99 % 0.00 in /  0 mm
08:36 50.4 °F /  10.2 °C 50.1 °F /  10.1 °C 29.74 in /  1007 hPa ENE 5.0 mph /  8 km/h 7.0 mph /  11.3 km/h 99 % 0.00 in /  0 mm
08:41 50.5 °F /  10.3 °C 50.2 °F /  10.1 °C 29.74 in /  1007 hPa ENE 2.0 mph /  3.2 km/h 7.0 mph /  11.3 km/h 99 % 0.00 in /  0 mm
08:45 50.5 °F /  10.3 °C 50.2 °F /  10.1 °C 29.74 in /  1007 hPa ENE 1.4 mph /  2.3 km/h 3.5 mph /  5.6 km/h 99 % 0.04 in /  1.02 mm
08:50 50.6 °F /  10.3 °C 50.3 °F /  10.2 °C 29.74 in /  1007 hPa ENE 1.7 mph /  2.7 km/h 4.6 mph /  7.4 km/h 99 % 0.04 in /  1.02 mm
08:55 50.6 °F /  10.3 °C 50.3 °F /  10.2 °C 29.74 in /  1007 hPa ENE 1.5 mph /  2.4 km/h 2.0 mph /  3.2 km/h 99 % 0.03 in /  0.76 mm
09:01 50.7 °F /  10.4 °C 50.4 °F /  10.2 °C 29.74 in /  1007 hPa ENE 1.6 mph /  2.6 km/h 3.0 mph /  4.8 km/h 99 % 0.03 in /  0.76 mm
09:06 50.7 °F /  10.4 °C 50.4 °F /  10.2 °C 29.74 in /  1007 hPa Calm   4.0 mph /  6.4 km/h 99 % 0.00 in /  0 mm
09:11 50.7 °F /  10.4 °C 50.4 °F /  10.2 °C 29.75 in /  1007.3 hPa ENE 1.0 mph /  1.6 km/h 3.0 mph /  4.8 km/h 99 % 0.00 in /  0 mm
09:16 50.8 °F /  10.4 °C 50.5 °F /  10.3 °C 29.74 in /  1007 hPa ENE 3.8 mph /  6.1 km/h 6.9 mph /  11.1 km/h 99 % 0.00 in /  0 mm
09:21 50.8 °F /  10.4 °C 50.5 °F /  10.3 °C 29.74 in /  1007 hPa ENE 3.8 mph /  6.1 km/h 6.9 mph /  11.1 km/h 99 % 0.00 in /  0 mm
09:26 50.8 °F /  10.4 °C 50.5 °F /  10.3 °C 29.74 in /  1007 hPa ENE 5.2 mph /  8.4 km/h 8.1 mph /  13 km/h 99 % 0.00 in /  0 mm
09:31 50.8 °F /  10.4 °C 50.5 °F /  10.3 °C 29.74 in /  1007 hPa ENE 3.4 mph /  5.5 km/h 6.9 mph /  11.1 km/h 99 % 0.00 in /  0 mm
09:36 51.0 °F /  10.6 °C 50.7 °F /  10.4 °C 29.74 in /  1007 hPa ENE 3.1 mph /  5 km/h 5.0 mph /  8 km/h 99 % 0.00 in /  0 mm
09:46 51.2 °F /  10.7 °C 50.9 °F /  10.5 °C 29.74 in /  1007 hPa ENE 2.6 mph /  4.2 km/h 5.8 mph /  9.3 km/h 99 % 0.00 in /  0 mm
09:51 51.4 °F /  10.8 °C 51.1 °F /  10.6 °C 29.74 in /  1007 hPa NE 2.8 mph /  4.5 km/h 4.0 mph /  6.4 km/h 99 % 0.00 in /  0 mm
09:56 52.0 °F /  11.1 °C 51.7 °F /  10.9 °C 29.74 in /  1007 hPa NE 3.1 mph /  5 km/h 5.8 mph /  9.3 km/h 99 % 0.00 in /  0 mm
10:01 52.6 °F /  11.4 °C 52.3 °F /  11.3 °C 29.74 in /  1007 hPa NNE 3.4 mph /  5.5 km/h 8.1 mph /  13 km/h 99 % 0.00 in /  0 mm
10:06 53.0 °F /  11.7 °C 52.7 °F /  11.5 °C 29.74 in /  1007 hPa ENE 3.1 mph /  5 km/h 7.0 mph /  11.3 km/h 99 % 0.00 in /  0 mm
10:11 52.7 °F /  11.5 °C 52.4 °F /  11.3 °C 29.74 in /  1007 hPa NE 3.3 mph /  5.3 km/h 4.6 mph /  7.4 km/h 99 % 0.00 in /  0 mm
10:21 52.5 °F /  11.4 °C 52.2 °F /  11.2 °C 29.74 in /  1007 hPa NE 3.0 mph /  4.8 km/h 5.0 mph /  8 km/h 99 % 0.00 in /  0 mm
10:26 52.4 °F /  11.3 °C 52.1 °F /  11.2 °C 29.74 in /  1007 hPa ENE 4.6 mph /  7.4 km/h 8.1 mph /  13 km/h 99 % 0.00 in /  0 mm
10:31 52.1 °F /  11.2 °C 51.8 °F /  11 °C 29.74 in /  1007 hPa ENE 3.3 mph /  5.3 km/h 8.1 mph /  13 km/h 99 % 0.00 in /  0 mm
10:36 52.0 °F /  11.1 °C 51.7 °F /  10.9 °C 29.74 in /  1007 hPa NE 4.3 mph /  6.9 km/h 4.6 mph /  7.4 km/h 99 % 0.00 in /  0 mm
10:41 51.7 °F /  10.9 °C 51.4 °F /  10.8 °C 29.75 in /  1007.3 hPa NE 3.1 mph /  5 km/h 8.1 mph /  13 km/h 99 % 0.00 in /  0 mm
10:46 51.6 °F /  10.9 °C 51.3 °F /  10.7 °C 29.75 in /  1007.3 hPa ENE 4.6 mph /  7.4 km/h 6.0 mph /  9.7 km/h 99 % 0.00 in /  0 mm
10:52 51.6 °F /  10.9 °C 51.3 °F /  10.7 °C 29.75 in /  1007.3 hPa ENE 4.0 mph /  6.4 km/h 6.9 mph /  11.1 km/h 99 % 0.00 in /  0 mm
10:57 51.8 °F /  11 °C 51.5 °F /  10.8 °C 29.75 in /  1007.3 hPa East 5.2 mph /  8.4 km/h 6.9 mph /  11.1 km/h 99 % 0.00 in /  0 mm
11:02 51.8 °F /  11 °C 51.5 °F /  10.8 °C 29.75 in /  1007.3 hPa East 6.3 mph /  10.1 km/h 8.1 mph /  13 km/h 99 % 0.00 in /  0 mm
11:07 51.9 °F /  11.1 °C 51.6 °F /  10.9 °C 29.75 in /  1007.3 hPa East 6.3 mph /  10.1 km/h 9.2 mph /  14.8 km/h 99 % 0.00 in /  0 mm
11:12 51.9 °F /  11.1 °C 51.6 °F /  10.9 °C 29.75 in /  1007.3 hPa ENE 4.8 mph /  7.7 km/h 11.5 mph /  18.5 km/h 99 % 0.00 in /  0 mm
11:17 51.9 °F /  11.1 °C 51.6 °F /  10.9 °C 29.75 in /  1007.3 hPa ENE 4.3 mph /  6.9 km/h 8.1 mph /  13 km/h 99 % 0.00 in /  0 mm
11:22 51.9 °F /  11.1 °C 51.6 °F /  10.9 °C 29.75 in /  1007.3 hPa East 3.0 mph /  4.8 km/h 4.6 mph /  7.4 km/h 99 % 0.00 in /  0 mm
11:27 52.1 °F /  11.2 °C 51.8 °F /  11 °C 29.75 in /  1007.3 hPa NE 2.6 mph /  4.2 km/h 3.5 mph /  5.6 km/h 99 % 0.00 in /  0 mm
11:32 52.0 °F /  11.1 °C 51.7 °F /  10.9 °C 29.74 in /  1007 hPa ENE 3.3 mph /  5.3 km/h 4.6 mph /  7.4 km/h 99 % 0.00 in /  0 mm
11:37 52.1 °F /  11.2 °C 51.8 °F /  11 °C 29.75 in /  1007.3 hPa ENE 2.1 mph /  3.4 km/h 3.5 mph /  5.6 km/h 99 % 0.00 in /  0 mm
11:43 52.1 °F /  11.2 °C 51.8 °F /  11 °C 29.75 in /  1007.3 hPa East 2.0 mph /  3.2 km/h 3.5 mph /  5.6 km/h 99 % 0.00 in /  0 mm
11:48 52.3 °F /  11.3 °C 52.0 °F /  11.1 °C 29.75 in /  1007.3 hPa ENE 2.0 mph /  3.2 km/h 3.5 mph /  5.6 km/h 99 % 0.00 in /  0 mm
11:53 52.4 °F /  11.3 °C 52.1 °F /  11.2 °C 29.75 in /  1007.3 hPa East 2.2 mph /  3.5 km/h 5.8 mph /  9.3 km/h 99 % 0.00 in /  0 mm
11:58 52.4 °F /  11.3 °C 52.1 °F /  11.2 °C 29.75 in /  1007.3 hPa ENE 4.4 mph /  7.1 km/h 8.1 mph /  13 km/h 99 % 0.00 in /  0 mm
12:01 52.4 °F /  11.3 °C 52.1 °F /  11.2 °C 29.74 in /  1007 hPa ENE 2.5 mph /  4 km/h 6.9 mph /  11.1 km/h 99 % 0.00 in /  0 mm
12:06 52.4 °F /  11.3 °C 52.1 °F /  11.2 °C 29.74 in /  1007 hPa ENE 2.3 mph /  3.7 km/h 4.6 mph /  7.4 km/h 99 % 0.00 in /  0 mm
12:11 52.6 °F /  11.4 °C 52.3 °F /  11.3 °C 29.75 in /  1007.3 hPa ENE 3.4 mph /  5.5 km/h 6.9 mph /  11.1 km/h 99 % 0.00 in /  0 mm
12:16 52.6 °F /  11.4 °C 52.3 °F /  11.3 °C 29.74 in /  1007 hPa ENE 4.6 mph /  7.4 km/h 5.0 mph /  8 km/h 99 % 0.00 in /  0 mm
12:21 52.7 °F /  11.5 °C 52.4 °F /  11.3 °C 29.75 in /  1007.3 hPa ENE 4.6 mph /  7.4 km/h 6.9 mph /  11.1 km/h 99 % 0.00 in /  0 mm
12:26 52.8 °F /  11.6 °C 52.5 °F /  11.4 °C 29.75 in /  1007.3 hPa ENE 2.7 mph /  4.3 km/h 4.0 mph /  6.4 km/h 99 % 0.00 in /  0 mm
12:31 52.9 °F /  11.6 °C 52.6 °F /  11.4 °C 29.75 in /  1007.3 hPa NE 3.5 mph /  5.6 km/h 4.6 mph /  7.4 km/h 99 % 0.00 in /  0 mm
12:36 53.0 °F /  11.7 °C 52.7 °F /  11.5 °C 29.75 in /  1007.3 hPa ENE 3.2 mph /  5.1 km/h 6.9 mph /  11.1 km/h 99 % 0.00 in /  0 mm
12:41 53.1 °F /  11.7 °C 52.8 °F /  11.6 °C 29.75 in /  1007.3 hPa ENE 3.1 mph /  5 km/h 5.8 mph /  9.3 km/h 99 % 0.00 in /  0 mm
12:46 53.1 °F /  11.7 °C 52.8 °F /  11.6 °C 29.75 in /  1007.3 hPa East 3.8 mph /  6.1 km/h 5.8 mph /  9.3 km/h 99 % 0.00 in /  0 mm
12:51 53.2 °F /  11.8 °C 52.9 °F /  11.6 °C 29.74 in /  1007 hPa East 3.0 mph /  4.8 km/h 5.0 mph /  8 km/h 99 % 0.00 in /  0 mm
12:56 53.2 °F /  11.8 °C 52.9 °F /  11.6 °C 29.75 in /  1007.3 hPa East 3.6 mph /  5.8 km/h 5.0 mph /  8 km/h 99 % 0.00 in /  0 mm
13:01 53.3 °F /  11.8 °C 53.0 °F /  11.7 °C 29.74 in /  1007 hPa ENE 4.2 mph /  6.8 km/h 4.6 mph /  7.4 km/h 99 % 0.00 in /  0 mm
13:07 53.4 °F /  11.9 °C 53.1 °F /  11.7 °C 29.74 in /  1007 hPa East 4.3 mph /  6.9 km/h 5.8 mph /  9.3 km/h 99 % 0.00 in /  0 mm
13:12 53.6 °F /  12 °C 53.3 °F /  11.8 °C 29.74 in /  1007 hPa East 3.3 mph /  5.3 km/h 6.0 mph /  9.7 km/h 99 % 0.00 in /  0 mm
13:17 53.7 °F /  12.1 °C 53.4 °F /  11.9 °C 29.74 in /  1007 hPa East 4.1 mph /  6.6 km/h 5.0 mph /  8 km/h 99 % 0.00 in /  0 mm
13:22 53.8 °F /  12.1 °C 53.5 °F /  11.9 °C 29.74 in /  1007 hPa ENE 3.7 mph /  6 km/h 5.0 mph /  8 km/h 99 % 0.00 in /  0 mm
13:27 54.0 °F /  12.2 °C 53.7 °F /  12.1 °C 29.74 in /  1007 hPa ENE 3.4 mph /  5.5 km/h 5.0 mph /  8 km/h 99 % 0.00 in /  0 mm
13:32 54.2 °F /  12.3 °C 53.9 °F /  12.2 °C 29.74 in /  1007 hPa East 4.8 mph /  7.7 km/h 6.0 mph /  9.7 km/h 99 % 0.00 in /  0 mm
13:37 54.4 °F /  12.4 °C 54.1 °F /  12.3 °C 29.74 in /  1007 hPa East 3.5 mph /  5.6 km/h 5.8 mph /  9.3 km/h 99 % 0.00 in /  0 mm
13:42 54.4 °F /  12.4 °C 54.1 °F /  12.3 °C 29.74 in /  1007 hPa East 3.5 mph /  5.6 km/h 5.8 mph /  9.3 km/h 99 % 0.00 in /  0 mm
13:47 54.4 °F /  12.4 °C 54.1 °F /  12.3 °C 29.74 in /  1007 hPa ENE 2.8 mph /  4.5 km/h 4.6 mph /  7.4 km/h 99 % 0.00 in /  0 mm
13:48 54.4 °F /  12.4 °C 54.1 °F /  12.3 °C 29.74 in /  1007 hPa ENE 3.6 mph /  5.8 km/h 6.0 mph /  9.7 km/h 99 % 0.00 in /  0 mm
13:53 54.3 °F /  12.4 °C 54.0 °F /  12.2 °C 29.74 in /  1007 hPa ENE 3.2 mph /  5.1 km/h 5.0 mph /  8 km/h 99 % 0.00 in /  0 mm
13:58 54.2 °F /  12.3 °C 53.6 °F /  12 °C 29.74 in /  1007 hPa ENE 3.0 mph /  4.8 km/h 4.6 mph /  7.4 km/h 98 % 0.00 in /  0 mm
14:03 54.2 °F /  12.3 °C 53.6 °F /  12 °C 29.74 in /  1007 hPa NE 3.5 mph /  5.6 km/h 4.6 mph /  7.4 km/h 98 % 0.00 in /  0 mm
14:09 54.2 °F /  12.3 °C 53.6 °F /  12 °C 29.74 in /  1007 hPa East 3.2 mph /  5.1 km/h 3.5 mph /  5.6 km/h 98 % 0.00 in /  0 mm
14:14 54.3 °F /  12.4 °C 53.7 °F /  12.1 °C 29.74 in /  1007 hPa ENE 4.0 mph /  6.4 km/h 5.8 mph /  9.3 km/h 98 % 0.00 in /  0 mm
14:19 54.4 °F /  12.4 °C 53.8 °F /  12.1 °C 29.75 in /  1007.3 hPa East 3.2 mph /  5.1 km/h 5.0 mph /  8 km/h 98 % 0.00 in /  0 mm
14:24 54.5 °F /  12.5 °C 53.9 °F /  12.2 °C 29.75 in /  1007.3 hPa East 3.1 mph /  5 km/h 5.0 mph /  8 km/h 98 % 0.00 in /  0 mm
14:29 54.6 °F /  12.6 °C 54.0 °F /  12.2 °C 29.75 in /  1007.3 hPa ENE 2.6 mph /  4.2 km/h 3.5 mph /  5.6 km/h 98 % 0.00 in /  0 mm
14:34 54.8 °F /  12.7 °C 54.2 °F /  12.3 °C 29.74 in /  1007 hPa ENE 3.8 mph /  6.1 km/h 4.6 mph /  7.4 km/h 98 % 0.00 in /  0 mm
14:39 54.9 °F /  12.7 °C 54.3 °F /  12.4 °C 29.74 in /  1007 hPa ENE 3.5 mph /  5.6 km/h 5.0 mph /  8 km/h 98 % 0.00 in /  0 mm
14:44 54.9 °F /  12.7 °C 54.3 °F /  12.4 °C 29.74 in /  1007 hPa ENE 4.2 mph /  6.8 km/h 5.8 mph /  9.3 km/h 98 % 0.00 in /  0 mm
14:49 54.9 °F /  12.7 °C 54.3 °F /  12.4 °C 29.75 in /  1007.3 hPa East 3.4 mph /  5.5 km/h 5.8 mph /  9.3 km/h 98 % 0.00 in /  0 mm
14:54 55.0 °F /  12.8 °C 54.4 °F /  12.4 °C 29.74 in /  1007 hPa East 5.0 mph /  8 km/h 6.9 mph /  11.1 km/h 98 % 0.00 in /  0 mm
14:59 55.2 °F /  12.9 °C 54.6 °F /  12.6 °C 29.74 in /  1007 hPa East 5.0 mph /  8 km/h 6.9 mph /  11.1 km/h 98 % 0.00 in /  0 mm
15:05 55.4 °F /  13 °C 54.8 °F /  12.7 °C 29.74 in /  1007 hPa East 3.8 mph /  6.1 km/h 6.0 mph /  9.7 km/h 98 % 0.00 in /  0 mm
15:10 55.5 °F /  13.1 °C 54.9 °F /  12.7 °C 29.74 in /  1007 hPa East 3.1 mph /  5 km/h 6.9 mph /  11.1 km/h 98 % 0.00 in /  0 mm
15:11 55.5 °F /  13.1 °C 54.9 °F /  12.7 °C 29.74 in /  1007 hPa East 3.0 mph /  4.8 km/h 7.0 mph /  11.3 km/h 98 % 0.00 in /  0 mm
15:16 55.5 °F /  13.1 °C 54.9 °F /  12.7 °C 29.74 in /  1007 hPa East 5.0 mph /  8 km/h 7.0 mph /  11.3 km/h 98 % 0.00 in /  0 mm
15:20 55.5 °F /  13.1 °C 54.7 °F /  12.6 °C 29.74 in /  1007 hPa ENE 5.9 mph /  9.5 km/h 6.0 mph /  9.7 km/h 97 % 0.00 in /  0 mm
15:26 55.7 °F /  13.2 °C 54.9 °F /  12.7 °C 29.74 in /  1007 hPa East 3.0 mph /  4.8 km/h 7.0 mph /  11.3 km/h 97 % 0.00 in /  0 mm
15:31 56.0 °F /  13.3 °C 55.4 °F /  13 °C 29.74 in /  1007 hPa East 3.0 mph /  4.8 km/h 6.0 mph /  9.7 km/h 98 % 0.00 in /  0 mm
15:36 56.4 °F /  13.6 °C 55.8 °F /  13.2 °C 29.73 in /  1006.7 hPa ENE 3.0 mph /  4.8 km/h 6.0 mph /  9.7 km/h 98 % 0.00 in /  0 mm
15:41 57.0 °F /  13.9 °C 56.4 °F /  13.6 °C 29.73 in /  1006.7 hPa ENE 4.2 mph /  6.8 km/h 5.8 mph /  9.3 km/h 98 % 0.00 in /  0 mm
15:46 57.3 °F /  14.1 °C 56.7 °F /  13.7 °C 29.73 in /  1006.7 hPa ENE 3.2 mph /  5.1 km/h 3.5 mph /  5.6 km/h 98 % 0.00 in /  0 mm
15:51 57.4 °F /  14.1 °C 56.8 °F /  13.8 °C 29.73 in /  1006.7 hPa ENE 5.0 mph /  8 km/h 7.0 mph /  11.3 km/h 98 % 0.00 in /  0 mm
15:56 57.5 °F /  14.2 °C 56.9 °F /  13.8 °C 29.73 in /  1006.7 hPa East 6.0 mph /  9.7 km/h 8.0 mph /  12.9 km/h 98 % 0.00 in /  0 mm
16:01 57.5 °F /  14.2 °C 56.7 °F /  13.7 °C 29.73 in /  1006.7 hPa East 3.6 mph /  5.8 km/h 5.8 mph /  9.3 km/h 97 % 0.00 in /  0 mm
16:06 57.7 °F /  14.3 °C 57.1 °F /  13.9 °C 29.73 in /  1006.7 hPa East 3.6 mph /  5.8 km/h 5.0 mph /  8 km/h 98 % 0.00 in /  0 mm
16:11 57.8 °F /  14.3 °C 57.0 °F /  13.9 °C 29.73 in /  1006.7 hPa East 3.2 mph /  5.1 km/h 8.1 mph /  13 km/h 97 % 0.00 in /  0 mm
16:16 58.0 °F /  14.4 °C 57.2 °F /  14 °C 29.73 in /  1006.7 hPa ENE 3.5 mph /  5.6 km/h 5.8 mph /  9.3 km/h 97 % 0.00 in /  0 mm
16:21 58.1 °F /  14.5 °C 57.3 °F /  14.1 °C 29.73 in /  1006.7 hPa East 3.1 mph /  5 km/h 5.0 mph /  8 km/h 97 % 0.00 in /  0 mm
16:31 58.5 °F /  14.7 °C 57.7 °F /  14.3 °C 29.73 in /  1006.7 hPa East 3.4 mph /  5.5 km/h 5.0 mph /  8 km/h 97 % 0.00 in /  0 mm
16:36 58.7 °F /  14.8 °C 57.9 °F /  14.4 °C 29.73 in /  1006.7 hPa East 5.8 mph /  9.3 km/h 7.0 mph /  11.3 km/h 97 % 0.00 in /  0 mm
16:41 58.8 °F /  14.9 °C 58.0 °F /  14.4 °C 29.73 in /  1006.7 hPa ESE 4.6 mph /  7.4 km/h 6.0 mph /  9.7 km/h 97 % 0.00 in /  0 mm
16:46 59.0 °F /  15 °C 58.2 °F /  14.6 °C 29.73 in /  1006.7 hPa East 3.8 mph /  6.1 km/h 6.9 mph /  11.1 km/h 97 % 0.00 in /  0 mm
16:51 59.2 °F /  15.1 °C 58.3 °F /  14.6 °C 29.73 in /  1006.7 hPa East 3.7 mph /  6 km/h 5.8 mph /  9.3 km/h 97 % 0.00 in /  0 mm
16:56 59.2 °F /  15.1 °C 58.3 °F /  14.6 °C 29.73 in /  1006.7 hPa East 3.1 mph /  5 km/h 5.0 mph /  8 km/h 97 % 0.00 in /  0 mm
17:01 59.2 °F /  15.1 °C 58.1 °F /  14.5 °C 29.73 in /  1006.7 hPa East 4.0 mph /  6.4 km/h 5.0 mph /  8 km/h 96 % 0.00 in /  0 mm
17:06 59.2 °F /  15.1 °C 58.1 °F /  14.5 °C 29.73 in /  1006.7 hPa East 3.6 mph /  5.8 km/h 5.0 mph /  8 km/h 96 % 0.00 in /  0 mm
17:11 59.3 °F /  15.2 °C 58.2 °F /  14.6 °C 29.73 in /  1006.7 hPa East 2.7 mph /  4.3 km/h 3.5 mph /  5.6 km/h 96 % 0.00 in /  0 mm
17:16 59.4 °F /  15.2 °C 58.3 °F /  14.6 °C 29.73 in /  1006.7 hPa East 3.8 mph /  6.1 km/h 5.0 mph /  8 km/h 96 % 0.00 in /  0 mm
17:22 59.5 °F /  15.3 °C 58.4 °F /  14.7 °C 29.73 in /  1006.7 hPa East 3.8 mph /  6.1 km/h 4.6 mph /  7.4 km/h 96 % 0.00 in /  0 mm
17:27 59.5 °F /  15.3 °C 58.4 °F /  14.7 °C 29.73 in /  1006.7 hPa ENE 1.5 mph /  2.4 km/h 3.5 mph /  5.6 km/h 96 % 0.00 in /  0 mm
17:32 59.5 °F /  15.3 °C 58.1 °F /  14.5 °C 29.74 in /  1007 hPa ENE 1.6 mph /  2.6 km/h 3.5 mph /  5.6 km/h 95 % 0.00 in /  0 mm
17:37 59.4 °F /  15.2 °C 58.0 °F /  14.4 °C 29.74 in /  1007 hPa ENE 2.5 mph /  4 km/h 3.5 mph /  5.6 km/h 95 % 0.00 in /  0 mm
17:42 59.2 °F /  15.1 °C 57.5 °F /  14.2 °C 29.74 in /  1007 hPa ENE 1.2 mph /  1.9 km/h 2.3 mph /  3.7 km/h 94 % 0.00 in /  0 mm
17:47 59.1 °F /  15.1 °C 57.4 °F /  14.1 °C 29.74 in /  1007 hPa ENE 0.4 mph /  0.6 km/h 1.2 mph /  1.9 km/h 94 % 0.00 in /  0 mm
17:52 59.0 °F /  15 °C 57.3 °F /  14.1 °C 29.74 in /  1007 hPa ENE 0.4 mph /  0.6 km/h 1.2 mph /  1.9 km/h 94 % 0.00 in /  0 mm
17:57 58.9 °F /  14.9 °C 57.2 °F /  14 °C 29.74 in /  1007 hPa ENE 1.3 mph /  2.1 km/h 2.3 mph /  3.7 km/h 94 % 0.00 in /  0 mm
18:02 58.9 °F /  14.9 °C 57.2 °F /  14 °C 29.74 in /  1007 hPa East 2.6 mph /  4.2 km/h 4.6 mph /  7.4 km/h 94 % 0.00 in /  0 mm
18:07 58.9 °F /  14.9 °C 57.5 °F /  14.2 °C 29.74 in /  1007 hPa East 2.5 mph /  4 km/h 5.0 mph /  8 km/h 95 % 0.00 in /  0 mm
18:12 58.9 °F /  14.9 °C 57.5 °F /  14.2 °C 29.74 in /  1007 hPa East 1.7 mph /  2.7 km/h 3.5 mph /  5.6 km/h 95 % 0.00 in /  0 mm
18:18 58.9 °F /  14.9 °C 57.5 °F /  14.2 °C 29.74 in /  1007 hPa East 1.8 mph /  2.9 km/h 3.5 mph /  5.6 km/h 95 % 0.00 in /  0 mm
18:23 58.9 °F /  14.9 °C 57.5 °F /  14.2 °C 29.74 in /  1007 hPa East 0.2 mph /  0.3 km/h 1.2 mph /  1.9 km/h 95 % 0.00 in /  0 mm
18:28 58.9 °F /  14.9 °C 57.5 °F /  14.2 °C 29.74 in /  1007 hPa East 0.5 mph /  0.8 km/h 2.3 mph /  3.7 km/h 95 % 0.00 in /  0 mm
18:33 58.9 °F /  14.9 °C 57.5 °F /  14.2 °C 29.74 in /  1007 hPa East 0.1 mph /  0.2 km/h 2.3 mph /  3.7 km/h 95 % 0.00 in /  0 mm
18:38 58.9 °F /  14.9 °C 57.5 °F /  14.2 °C 29.74 in /  1007 hPa East 0.3 mph /  0.5 km/h 1.2 mph /  1.9 km/h 95 % 0.00 in /  0 mm
18:43 59.0 °F /  15 °C 57.6 °F /  14.2 °C 29.74 in /  1007 hPa Calm   1.2 mph /  1.9 km/h 95 % 0.00 in /  0 mm
18:48 59.1 °F /  15.1 °C 57.7 °F /  14.3 °C 29.74 in /  1007 hPa Calm     95 % 0.00 in /  0 mm
18:53 59.1 °F /  15.1 °C 57.7 °F /  14.3 °C 29.74 in /  1007 hPa Calm   1.2 mph /  1.9 km/h 95 % 0.00 in /  0 mm
18:58 59.2 °F /  15.1 °C 57.8 °F /  14.3 °C 29.74 in /  1007 hPa East 0.1 mph /  0.2 km/h 1.2 mph /  1.9 km/h 95 % 0.00 in /  0 mm
19:04 59.3 °F /  15.2 °C 57.9 °F /  14.4 °C 29.75 in /  1007.3 hPa East 0.3 mph /  0.5 km/h 2.3 mph /  3.7 km/h 95 % 0.00 in /  0 mm
19:09 59.4 °F /  15.2 °C 58.0 °F /  14.4 °C 29.75 in /  1007.3 hPa Calm     95 % 0.00 in /  0 mm
19:14 59.4 °F /  15.2 °C 58.0 °F /  14.4 °C 29.75 in /  1007.3 hPa East 0.4 mph /  0.6 km/h 1.2 mph /  1.9 km/h 95 % 0.00 in /  0 mm
19:19 59.5 °F /  15.3 °C 58.1 °F /  14.5 °C 29.76 in /  1007.7 hPa East 0.3 mph /  0.5 km/h 3.5 mph /  5.6 km/h 95 % 0.00 in /  0 mm
19:24 59.5 °F /  15.3 °C 58.1 °F /  14.5 °C 29.76 in /  1007.7 hPa ENE 0.6 mph /  1 km/h 2.3 mph /  3.7 km/h 95 % 0.00 in /  0 mm
19:29 59.4 °F /  15.2 °C 58.0 °F /  14.4 °C 29.76 in /  1007.7 hPa Calm     95 % 0.00 in /  0 mm
19:34 59.4 °F /  15.2 °C 58.0 °F /  14.4 °C 29.77 in /  1008 hPa North 1.0 mph /  1.6 km/h 3.0 mph /  4.8 km/h 95 % 0.00 in /  0 mm
19:39 59.0 °F /  15 °C 57.0 °F /  13.9 °C 29.77 in /  1008 hPa NNW 2.8 mph /  4.5 km/h 3.5 mph /  5.6 km/h 93 % 0.00 in /  0 mm
19:44 58.5 °F /  14.7 °C 56.2 °F /  13.4 °C 29.78 in /  1008.4 hPa WNW 2.9 mph /  4.7 km/h 6.9 mph /  11.1 km/h 92 % 0.00 in /  0 mm
19:49 58.0 °F /  14.4 °C 55.4 °F /  13 °C 29.78 in /  1008.4 hPa WNW 2.9 mph /  4.7 km/h 3.5 mph /  5.6 km/h 91 % 0.00 in /  0 mm
19:54 57.7 °F /  14.3 °C 55.1 °F /  12.8 °C 29.78 in /  1008.4 hPa WNW 0.2 mph /  0.3 km/h 2.3 mph /  3.7 km/h 91 % 0.00 in /  0 mm
19:59 57.4 °F /  14.1 °C 54.8 °F /  12.7 °C 29.78 in /  1008.4 hPa Calm     91 % 0.00 in /  0 mm
20:04 57.2 °F /  14 °C 54.6 °F /  12.6 °C 29.78 in /  1008.4 hPa Calm   2.3 mph /  3.7 km/h 91 % 0.00 in /  0 mm
20:10 57.0 °F /  13.9 °C 54.7 °F /  12.6 °C 29.78 in /  1008.4 hPa Calm     92 % 0.00 in /  0 mm
20:15 56.8 °F /  13.8 °C 54.5 °F /  12.5 °C 29.78 in /  1008.4 hPa Calm   1.2 mph /  1.9 km/h 92 % 0.00 in /  0 mm
20:20 56.6 °F /  13.7 °C 54.3 °F /  12.4 °C 29.78 in /  1008.4 hPa Calm     92 % 0.00 in /  0 mm
20:25 56.4 °F /  13.6 °C 54.1 °F /  12.3 °C 29.78 in /  1008.4 hPa Calm     92 % 0.00 in /  0 mm
20:30 56.2 °F /  13.4 °C 53.9 °F /  12.2 °C 29.78 in /  1008.4 hPa Calm     92 % 0.00 in /  0 mm
20:35 56.1 °F /  13.4 °C 54.1 °F /  12.3 °C 29.78 in /  1008.4 hPa Calm     93 % 0.00 in /  0 mm
20:40 55.9 °F /  13.3 °C 53.9 °F /  12.2 °C 29.79 in /  1008.7 hPa Calm     93 % 0.00 in /  0 mm
20:45 55.8 °F /  13.2 °C 53.8 °F /  12.1 °C 29.78 in /  1008.4 hPa Calm     93 % 0.00 in /  0 mm
20:50 55.7 °F /  13.2 °C 53.7 °F /  12.1 °C 29.79 in /  1008.7 hPa Calm     93 % 0.00 in /  0 mm
20:55 55.7 °F /  13.2 °C 54.0 °F /  12.2 °C 29.79 in /  1008.7 hPa Calm     94 % 0.00 in /  0 mm
21:00 55.6 °F /  13.1 °C 53.9 °F /  12.2 °C 29.79 in /  1008.7 hPa Calm     94 % 0.00 in /  0 mm
21:06 55.5 °F /  13.1 °C 53.8 °F /  12.1 °C 29.79 in /  1008.7 hPa Calm   1.0 mph /  1.6 km/h 94 % 0.00 in /  0 mm
21:09 55.5 °F /  13.1 °C 53.8 °F /  12.1 °C 29.79 in /  1008.7 hPa Calm     94 % 0.00 in /  0 mm
21:14 55.4 °F /  13 °C 53.7 °F /  12.1 °C 29.79 in /  1008.7 hPa Calm     94 % 0.00 in /  0 mm
21:19 55.3 °F /  12.9 °C 53.9 °F /  12.2 °C 29.79 in /  1008.7 hPa Calm     95 % 0.00 in /  0 mm
21:24 55.2 °F /  12.9 °C 53.8 °F /  12.1 °C 29.79 in /  1008.7 hPa Calm     95 % 0.00 in /  0 mm
21:29 55.1 °F /  12.8 °C 53.7 °F /  12.1 °C 29.79 in /  1008.7 hPa WNW 0.2 mph /  0.3 km/h 1.2 mph /  1.9 km/h 95 % 0.00 in /  0 mm
21:34 55.0 °F /  12.8 °C 53.6 °F /  12 °C 29.79 in /  1008.7 hPa WNW 0.4 mph /  0.6 km/h 2.3 mph /  3.7 km/h 95 % 0.00 in /  0 mm
21:39 54.9 °F /  12.7 °C 53.5 °F /  11.9 °C 29.79 in /  1008.7 hPa Calm     95 % 0.00 in /  0 mm
21:44 54.8 °F /  12.7 °C 53.4 °F /  11.9 °C 29.79 in /  1008.7 hPa Calm     95 % 0.00 in /  0 mm
21:49 54.6 °F /  12.6 °C 53.2 °F /  11.8 °C 29.79 in /  1008.7 hPa Calm     95 % 0.00 in /  0 mm
21:55 54.4 °F /  12.4 °C 53.0 °F /  11.7 °C 29.79 in /  1008.7 hPa Calm     95 % 0.00 in /  0 mm
22:00 54.3 °F /  12.4 °C 52.9 °F /  11.6 °C 29.79 in /  1008.7 hPa Calm     95 % 0.00 in /  0 mm
22:05 54.1 °F /  12.3 °C 52.7 °F /  11.5 °C 29.80 in /  1009 hPa Calm     95 % 0.00 in /  0 mm
22:10 54.0 °F /  12.2 °C 52.6 °F /  11.4 °C 29.80 in /  1009 hPa Calm     95 % 0.00 in /  0 mm
22:15 53.9 °F /  12.2 °C 52.5 °F /  11.4 °C 29.81 in /  1009.4 hPa WNW 0.1 mph /  0.2 km/h 1.2 mph /  1.9 km/h 95 % 0.00 in /  0 mm
22:20 53.8 °F /  12.1 °C 52.4 °F /  11.3 °C 29.80 in /  1009 hPa Calm     95 % 0.00 in /  0 mm
22:25 53.7 °F /  12.1 °C 52.3 °F /  11.3 °C 29.80 in /  1009 hPa Calm     95 % 0.00 in /  0 mm
22:30 53.7 °F /  12.1 °C 52.3 °F /  11.3 °C 29.80 in /  1009 hPa Calm     95 % 0.00 in /  0 mm
22:35 53.6 °F /  12 °C 52.5 °F /  11.4 °C 29.81 in /  1009.4 hPa WNW 0.2 mph /  0.3 km/h 1.2 mph /  1.9 km/h 96 % 0.00 in /  0 mm
22:40 53.6 °F /  12 °C 52.5 °F /  11.4 °C 29.81 in /  1009.4 hPa Calm     96 % 0.00 in /  0 mm
22:45 53.6 °F /  12 °C 52.5 °F /  11.4 °C 29.81 in /  1009.4 hPa Calm     96 % 0.00 in /  0 mm
22:51 53.6 °F /  12 °C 52.5 °F /  11.4 °C 29.81 in /  1009.4 hPa Calm   2.0 mph /  3.2 km/h 96 % 0.00 in /  0 mm
22:56 53.6 °F /  12 °C 52.5 °F /  11.4 °C 29.81 in /  1009.4 hPa Calm   1.0 mph /  1.6 km/h 96 % 0.00 in /  0 mm
23:01 53.6 °F /  12 °C 52.5 °F /  11.4 °C 29.81 in /  1009.4 hPa Calm     96 % 0.00 in /  0 mm
23:06 53.6 °F /  12 °C 52.5 °F /  11.4 °C 29.81 in /  1009.4 hPa Calm   1.0 mph /  1.6 km/h 96 % 0.00 in /  0 mm
23:11 53.7 °F /  12.1 °C 52.6 °F /  11.4 °C 29.81 in /  1009.4 hPa Calm     96 % 0.00 in /  0 mm
23:16 53.7 °F /  12.1 °C 52.6 °F /  11.4 °C 29.81 in /  1009.4 hPa Calm     96 % 0.00 in /  0 mm
23:21 53.7 °F /  12.1 °C 52.6 °F /  11.4 °C 29.81 in /  1009.4 hPa Calm     96 % 0.00 in /  0 mm
23:26 53.7 °F /  12.1 °C 52.6 °F /  11.4 °C 29.81 in /  1009.4 hPa Calm   1.0 mph /  1.6 km/h 96 % 0.00 in /  0 mm
23:31 53.7 °F /  12.1 °C 52.9 °F /  11.6 °C 29.82 in /  1009.7 hPa WNW 1.0 mph /  1.6 km/h 2.0 mph /  3.2 km/h 97 % 0.00 in /  0 mm
23:36 53.8 °F /  12.1 °C 53.0 °F /  11.7 °C 29.81 in /  1009.4 hPa Calm     97 % 0.00 in /  0 mm
23:41 53.8 °F /  12.1 °C 53.0 °F /  11.7 °C 29.81 in /  1009.4 hPa Calm     97 % 0.00 in /  0 mm
23:46 53.8 °F /  12.1 °C 53.0 °F /  11.7 °C 29.81 in /  1009.4 hPa Calm     97 % 0.00 in /  0 mm
23:51 53.8 °F /  12.1 °C 53.0 °F /  11.7 °C 29.82 in /  1009.7 hPa Calm     97 % 0.00 in /  0 mm
23:56 53.7 °F /  12.1 °C 52.9 °F /  11.6 °C 29.82 in /  1009.7 hPa Calm     97 % 0.00 in /  0 mm
Crab Meadow Weather
Compliments of Weather Underground - 3 mb

Script developed by  Jim McMurry - jmcmurry@mwt.net Adapted for the template by  Wim van der Kuil - Leuven-Template.eu

Weather Terms: Flood Warning (river flood)- A warning for specific communities or areas along a river where flooding is imminent or occurring. Flood warnings normally give specific crest forecasts.